date,time,wsp,wdr,temp,humid
2016-01-01,00:00,3,51,26.1,57
2016-01-01,01:00,3.2,35,25.7,58
2016-01-01,02:00,3.1,57,24.9,62
2016-01-01,03:00,3.1,70,24.2,66
2016-01-01,04:00,3.1,79,23.6,69
2016-01-01,05:00,3.1,79,23.2,69
2016-01-01,06:00,3.5,85,22.6,70
2016-01-01,07:00,3.4,81,22.5,68
2016-01-01,08:00,4,71,23.6,63
2016-01-01,09:00,4.5,70,24.6,59
2016-01-01,10:00,3.9,74,25.4,57
2016-01-01,11:00,4.9,70,26.7,53
2016-01-01,12:00,4.9,70,27.6,50
2016-01-01,13:00,4.5,64,28.4,48
2016-01-01,14:00,3.6,66,29,47
2016-01-01,15:00,4.6,73,29.1,46
2016-01-01,16:00,4.2,68,29.3,45
2016-01-01,17:00,3.3,62,29.1,46
2016-01-01,18:00,2.7,32,28.5,50
2016-01-01,19:00,2.9,337,27.6,54
2016-01-01,20:00,2.9,332,27,56
2016-01-01,21:00,2.9,333,26.7,56
2016-01-01,22:00,2.8,328,26,60
2016-01-01,23:00,2.9,0,25.7,61
2016-01-02,00:00,2.9,3,25.2,63
2016-01-02,01:00,3,12,24.8,65
2016-01-02,02:00,3,6,24.4,65
2016-01-02,03:00,2.7,351,23.9,67
2016-01-02,04:00,2.9,339,23.2,72
2016-01-02,05:00,2.9,353,22.9,71
2016-01-02,06:00,2.9,7,22.6,71
2016-01-02,07:00,2.8,9,22.6,71
2016-01-02,08:00,2.7,24,23.9,66
2016-01-02,09:00,2.8,48,25.7,57
2016-01-02,10:00,2.4,83,27.3,52
2016-01-02,11:00,2.3,83,28.7,48
2016-01-02,12:00,2.6,100,29.7,43
2016-01-02,13:00,2.9,88,30.2,40
2016-01-02,14:00,2.8,81,30.4,39
2016-01-02,15:00,2.9,74,30.5,40
2016-01-02,16:00,3.2,60,30.1,42
2016-01-02,17:00,3.5,76,29.5,43
2016-01-02,18:00,3.1,77,28.8,47
2016-01-02,19:00,2.5,339,28.4,49
2016-01-02,20:00,2.9,332,27.9,50
2016-01-02,21:00,2.9,323,27.5,50
2016-01-02,22:00,2.9,332,27.1,51
2016-01-02,23:00,2.9,348,27.1,48
2016-01-03,00:00,2.9,349,26.8,47
2016-01-03,01:00,2.9,328,25.9,53
2016-01-03,02:00,2.9,340,25.4,54
2016-01-03,03:00,2.9,360,24.8,58
2016-01-03,04:00,3.1,15,24.1,63
2016-01-03,05:00,2.9,341,23.5,67
2016-01-03,06:00,2.9,296,22.8,71
2016-01-03,07:00,2.9,285,22.4,73
2016-01-03,08:00,2.6,316,23.4,69
2016-01-03,09:00,2.2,308,25.4,61
2016-01-03,10:00,1.5,97,27.7,52
2016-01-03,11:00,0.7,344,29.5,46
2016-01-03,12:00,2.4,96,30.8,41
2016-01-03,13:00,2,65,31.5,39
2016-01-03,14:00,1.6,61,31.7,37
2016-01-03,15:00,1.7,310,32.2,34
2016-01-03,16:00,2.2,335,31.6,38
2016-01-03,17:00,2.8,333,31.1,40
2016-01-03,18:00,2.8,324,29.9,44
2016-01-03,19:00,2.8,345,29.4,45
2016-01-03,20:00,2.8,330,28.9,47
2016-01-03,21:00,2.4,330,28.4,50
2016-01-03,22:00,1.8,300,28.1,50
2016-01-03,23:00,2.9,263,27.8,51
2016-01-04,00:00,3,268,26.9,55
2016-01-04,01:00,3,262,26.1,61
2016-01-04,02:00,3,269,25.4,64
2016-01-04,03:00,2.9,287,24.8,66
2016-01-04,04:00,2.8,327,24.2,69
2016-01-04,05:00,2.9,335,24.5,65
2016-01-04,06:00,2.9,350,24.8,62
2016-01-04,07:00,2.8,320,24.9,62
2016-01-04,08:00,2.8,319,26.3,55
2016-01-04,09:00,2.5,333,28,48
2016-01-04,10:00,2.4,324,29.5,42
2016-01-04,11:00,2.5,344,30.6,38
2016-01-04,12:00,2.2,359,31.3,38
2016-01-04,13:00,1.3,13,32.2,35
2016-01-04,14:00,2.5,42,32.5,34
2016-01-04,15:00,2.2,354,32.8,34
2016-01-04,16:00,2.5,306,32.7,35
2016-01-04,17:00,2.3,326,32.2,36
2016-01-04,18:00,2.8,90,31.2,41
2016-01-04,19:00,2.7,139,30.6,41
2016-01-04,20:00,2.9,148,30.3,41
2016-01-04,21:00,3,162,30.1,41
2016-01-04,22:00,2.9,224,29.8,40
2016-01-04,23:00,3.1,230,28.9,46
2016-01-05,00:00,3.3,233,27.8,58
2016-01-05,01:00,3.2,231,26.8,68
2016-01-05,02:00,3,222,26.7,68
2016-01-05,03:00,2.8,204,26.7,64
2016-01-05,04:00,2.9,230,26.6,60
2016-01-05,05:00,3,232,26.1,58
2016-01-05,06:00,2.4,289,25.7,58
2016-01-05,07:00,2.3,16,25.6,60
2016-01-05,08:00,2.4,38,26,65
2016-01-05,09:00,2.6,343,27.6,52
2016-01-05,10:00,2.5,336,28.7,44
2016-01-05,11:00,2.6,322,29.8,38
2016-01-05,12:00,2.4,334,30.9,34
2016-01-05,13:00,2.3,357,31.6,33
2016-01-05,14:00,1.5,296,32.3,33
2016-01-05,15:00,2.2,11,32.5,33
2016-01-05,16:00,1.8,356,32.7,33
2016-01-05,17:00,2.7,295,32.3,34
2016-01-05,18:00,2.1,2,31.3,36
2016-01-05,19:00,3,73,30.9,38
2016-01-05,20:00,2.7,107,30.1,44
2016-01-05,21:00,2.9,148,29.2,48
2016-01-05,22:00,3,172,28.9,50
2016-01-05,23:00,2.9,206,28.2,58
2016-01-06,00:00,3,229,27.6,61
2016-01-06,01:00,2.7,249,26.7,67
2016-01-06,02:00,2.9,282,25.9,71
2016-01-06,03:00,2.9,292,25.3,75
2016-01-06,04:00,2.8,358,24.7,78
2016-01-06,05:00,2.9,46,24.3,78
2016-01-06,06:00,3,66,23.2,82
2016-01-06,07:00,3.1,74,23.5,79
2016-01-06,08:00,3,75,25.1,72
2016-01-06,09:00,1.5,66,27.6,67
2016-01-06,10:00,1.3,192,29.7,61
2016-01-06,11:00,0.6,56,31.3,52
2016-01-06,12:00,1.4,36,31.8,47
2016-01-06,13:00,2,352,32.3,43
2016-01-06,14:00,1.1,5,32.6,41
2016-01-06,15:00,3,80,31.9,43
2016-01-06,16:00,3,82,31.7,44
2016-01-06,17:00,3.1,84,31.3,48
2016-01-06,18:00,3.1,95,30.8,49
2016-01-06,19:00,3.1,93,30.6,49
2016-01-06,20:00,2.6,129,30,52
2016-01-06,21:00,2.8,172,29.3,58
2016-01-06,22:00,3,230,28.9,60
2016-01-06,23:00,3,213,28,67
2016-01-07,00:00,3,217,27.7,68
2016-01-07,01:00,3,228,27.1,75
2016-01-07,02:00,3,242,26.5,81
2016-01-07,03:00,2.9,258,25.9,85
2016-01-07,04:00,2.9,333,25.2,86
2016-01-07,05:00,2.8,54,24.5,87
2016-01-07,06:00,3.1,63,23.5,89
2016-01-07,07:00,3.1,72,23.7,84
2016-01-07,08:00,3,68,25,81
2016-01-07,09:00,2.5,76,27.5,75
2016-01-07,10:00,1.2,248,29.7,63
2016-01-07,11:00,0.4,306,31.2,49
2016-01-07,12:00,2.3,309,31.4,48
2016-01-07,13:00,1.8,302,31.8,46
2016-01-07,14:00,2.4,347,31.6,46
2016-01-07,15:00,2.3,355,31.6,46
2016-01-07,16:00,2.7,338,31.3,46
2016-01-07,17:00,2.8,331,30.7,48
2016-01-07,18:00,2.8,325,30.2,46
2016-01-07,19:00,2.5,316,29.9,46
2016-01-07,20:00,3,188,30,43
2016-01-07,21:00,2.9,198,29.2,58
2016-01-07,22:00,3,212,28.6,68
2016-01-07,23:00,3,236,28.2,72
2016-01-08,00:00,2.9,241,27.8,75
2016-01-08,01:00,3,264,27.3,80
2016-01-08,02:00,2.8,228,27.1,82
2016-01-08,03:00,2.7,243,27,84
2016-01-08,04:00,2.5,344,26.5,85
2016-01-08,05:00,3.1,35,25.7,85
2016-01-08,06:00,2.9,64,25.2,83
2016-01-08,07:00,3.1,74,25,79
2016-01-08,08:00,2.6,123,25.8,82
2016-01-08,09:00,2.9,75,26.7,81
2016-01-08,10:00,2.7,134,27.7,76
2016-01-08,11:00,2.6,164,27.1,75
2016-01-08,12:00,2.7,202,27.3,71
2016-01-08,13:00,2.9,227,27.2,69
2016-01-08,14:00,2.4,286,28.5,56
2016-01-08,15:00,2.5,73,29.4,51
2016-01-08,16:00,2.9,95,30.4,50
2016-01-08,17:00,2.9,103,29.1,59
2016-01-08,18:00,2.6,127,28.5,61
2016-01-08,19:00,2.7,125,27.4,69
2016-01-08,20:00,2.8,145,27.1,70
2016-01-08,21:00,2.7,121,26.7,72
2016-01-08,22:00,2.8,109,26.3,77
2016-01-08,23:00,2.6,130,26.1,80
2016-01-09,00:00,2.6,107,25.7,81
2016-01-09,01:00,3,96,24.7,87
2016-01-09,02:00,3.1,88,24.7,87
2016-01-09,03:00,2.7,146,24.8,87
2016-01-09,04:00,2.7,122,24.8,84
2016-01-09,05:00,1.5,163,25,84
2016-01-09,06:00,3,88,24.8,85
2016-01-09,07:00,2.7,114,24.9,83
2016-01-09,08:00,2.5,145,25.5,86
2016-01-09,09:00,3.8,182,27.1,78
2016-01-09,10:00,3.2,155,27.9,74
2016-01-09,11:00,3.9,179,28.8,63
2016-01-09,12:00,4,190,29.6,57
2016-01-09,13:00,4.1,192,30,54
2016-01-09,14:00,3.2,193,30.5,50
2016-01-09,15:00,2.7,161,31.2,45
2016-01-09,16:00,3.1,157,31.1,42
2016-01-09,17:00,3.7,168,29.9,48
2016-01-09,18:00,3.5,161,28.9,58
2016-01-09,19:00,4,163,28.2,67
2016-01-09,20:00,4,167,27.9,74
2016-01-09,21:00,4.6,168,27.7,77
2016-01-09,22:00,4.3,170,27.6,78
2016-01-09,23:00,3.3,164,27.5,80
2016-01-10,00:00,2.5,155,27.3,81
2016-01-10,01:00,3.1,175,27.5,78
2016-01-10,02:00,2.9,169,27.4,78
2016-01-10,03:00,1.9,152,27,80
2016-01-10,04:00,2.4,76,26,85
2016-01-10,05:00,1.6,49,25.2,88
2016-01-10,06:00,1.7,147,25.6,86
2016-01-10,07:00,1.2,94,25.4,86
2016-01-10,08:00,2.9,256,26.8,77
2016-01-10,09:00,2.9,244,27.2,70
2016-01-10,10:00,3.4,253,28.6,55
2016-01-10,11:00,3.5,284,29.6,48
2016-01-10,12:00,2.9,289,30.4,43
2016-01-10,13:00,2.5,275,30.8,41
2016-01-10,14:00,2.1,240,31.4,40
2016-01-10,15:00,2.7,237,31.6,40
2016-01-10,16:00,2,226,32.2,38
2016-01-10,17:00,3.1,156,30.6,45
2016-01-10,18:00,3.2,164,29.5,49
2016-01-10,19:00,3.4,164,28.6,60
2016-01-10,20:00,3.6,170,27.9,72
2016-01-10,21:00,3.7,177,27.8,75
2016-01-10,22:00,3.4,173,27.8,75
2016-01-10,23:00,3.1,178,27.7,76
2016-01-11,00:00,3.2,187,27.6,76
2016-01-11,01:00,2.9,185,27.5,75
2016-01-11,02:00,2.9,191,27.3,76
2016-01-11,03:00,2.1,70,26.4,81
2016-01-11,04:00,3,54,25.4,88
2016-01-11,05:00,3,50,25,89
2016-01-11,06:00,2.7,70,24.6,91
2016-01-11,07:00,2.9,36,24.6,92
2016-01-11,08:00,1.7,325,25.6,90
2016-01-11,09:00,2.5,315,26.4,83
2016-01-11,10:00,2.5,322,27.2,76
2016-01-11,11:00,2.7,325,28.2,67
2016-01-11,12:00,2.7,325,29,57
2016-01-11,13:00,2.7,332,30,49
2016-01-11,14:00,2,299,30.6,46
2016-01-11,15:00,1.6,319,31.2,44
2016-01-11,16:00,2,12,31.2,44
2016-01-11,17:00,2.4,354,30.9,43
2016-01-11,18:00,2.3,101,29.9,50
2016-01-11,19:00,2.7,140,28.9,55
2016-01-11,20:00,2.8,147,28.4,57
2016-01-11,21:00,3,154,28.1,59
2016-01-11,22:00,3,172,27.9,61
2016-01-11,23:00,3,177,27.6,66
2016-01-12,00:00,3,183,27.4,67
2016-01-12,01:00,2.3,204,27.1,70
2016-01-12,02:00,2.7,345,26.5,73
2016-01-12,03:00,3.1,34,25.8,75
2016-01-12,04:00,3,41,25,78
2016-01-12,05:00,3,48,24.2,81
2016-01-12,06:00,3.1,64,24,84
2016-01-12,07:00,3.1,74,24.1,86
2016-01-12,08:00,3,68,25.1,84
2016-01-12,09:00,3,75,26.9,79
2016-01-12,10:00,2.6,88,28.2,70
2016-01-12,11:00,2.7,71,28.6,65
2016-01-12,12:00,0.4,297,30,58
2016-01-12,13:00,1.6,291,30.5,54
2016-01-12,14:00,2.7,45,30.7,52
2016-01-12,15:00,3,68,30.4,51
2016-01-12,16:00,3,82,30.4,50
2016-01-12,17:00,3.1,69,30.4,49
2016-01-12,18:00,2.6,124,30.3,39
2016-01-12,19:00,2.7,139,29.7,42
2016-01-12,20:00,2.7,108,29,46
2016-01-12,21:00,2.8,189,28.8,48
2016-01-12,22:00,3.2,219,28.2,52
2016-01-12,23:00,3.1,220,27.3,68
2016-01-13,00:00,3.3,211,26.9,76
2016-01-13,01:00,3.2,209,26.7,77
2016-01-13,02:00,3.1,206,26.4,79
2016-01-13,03:00,2.8,205,26.2,81
2016-01-13,04:00,3,66,25.6,83
2016-01-13,05:00,3.1,49,24.5,84
2016-01-13,06:00,3.1,56,23.9,83
2016-01-13,07:00,3.1,58,24.3,81
2016-01-13,08:00,3,61,25.4,80
2016-01-13,09:00,2.2,71,27.3,76
2016-01-13,10:00,2.2,111,28.8,68
2016-01-13,11:00,1.8,157,30,62
2016-01-13,12:00,1.6,218,30.5,59
2016-01-13,13:00,0.7,117,30.6,57
2016-01-13,14:00,2.5,71,31,56
2016-01-13,15:00,0.4,284,31.9,53
2016-01-13,16:00,1.5,184,31.8,52
2016-01-13,17:00,3.3,183,30.6,55
2016-01-13,18:00,3.3,193,29.6,60
2016-01-13,19:00,3.4,169,29.2,60
2016-01-13,20:00,3.2,163,28.8,63
2016-01-13,21:00,2.9,152,28.3,68
2016-01-13,22:00,2.9,149,27.8,73
2016-01-13,23:00,3,153,27.5,76
2016-01-14,00:00,3,159,27.4,79
2016-01-14,01:00,3,170,27.3,80
2016-01-14,02:00,2.8,176,27.2,81
2016-01-14,03:00,3,173,27.1,81
2016-01-14,04:00,2.8,90,26.7,83
2016-01-14,05:00,3.1,67,26,88
2016-01-14,06:00,3.1,64,25.1,91
2016-01-14,07:00,2.3,86,25.2,92
2016-01-14,08:00,2.9,57,26.4,89
2016-01-14,09:00,2.4,61,27.8,81
2016-01-14,10:00,1.4,218,29,72
2016-01-14,11:00,1.9,183,30,65
2016-01-14,12:00,3,166,30.9,57
2016-01-14,13:00,2.9,170,32.1,51
2016-01-14,14:00,4.4,196,31.9,50
2016-01-14,15:00,4.5,176,31.8,49
2016-01-14,16:00,4.1,180,31.7,50
2016-01-14,17:00,4.1,161,31,54
2016-01-14,18:00,3.3,176,29.6,62
2016-01-14,19:00,3.6,170,29,67
2016-01-14,20:00,3.2,174,28.7,72
2016-01-14,21:00,3.7,169,28.5,71
2016-01-14,22:00,3.8,168,28.2,75
2016-01-14,23:00,3.4,172,28,79
2016-01-15,00:00,3.3,179,27.9,79
2016-01-15,01:00,3,189,27.8,80
2016-01-15,02:00,3,180,27.6,81
2016-01-15,03:00,3.1,178,27.5,81
2016-01-15,04:00,3,199,27.4,81
2016-01-15,05:00,3.1,209,27.3,83
2016-01-15,06:00,2.9,224,27.1,84
2016-01-15,07:00,2.2,215,27.4,83
2016-01-15,08:00,1.9,93,28.3,79
2016-01-15,09:00,2.4,204,29.5,67
2016-01-15,10:00,2.3,222,30.2,62
2016-01-15,11:00,3.3,197,31.1,54
2016-01-15,12:00,3.6,177,31.9,52
2016-01-15,13:00,3.8,192,32,51
2016-01-15,14:00,4.1,203,32,51
2016-01-15,15:00,3.1,181,32.4,50
2016-01-15,16:00,2.9,161,32,52
2016-01-15,17:00,3.5,159,31,57
2016-01-15,18:00,3.9,153,29.5,66
2016-01-15,19:00,3.9,155,28.6,74
2016-01-15,20:00,4.4,159,28.2,73
2016-01-15,21:00,4.6,166,28.1,72
2016-01-15,22:00,4.3,171,28,73
2016-01-15,23:00,3.6,185,28.1,70
2016-01-16,00:00,3.2,195,28.2,72
2016-01-16,01:00,3.5,206,28,76
2016-01-16,02:00,2.9,214,27.9,79
2016-01-16,03:00,2.8,239,27.7,81
2016-01-16,04:00,2.9,256,27.2,86
2016-01-16,05:00,2.9,255,27,87
2016-01-16,06:00,2.1,92,26.6,88
2016-01-16,07:00,2.9,97,25.8,89
2016-01-16,08:00,2.3,124,26.7,84
2016-01-16,09:00,2.9,92,27.9,78
2016-01-16,10:00,2.9,104,28.8,73
2016-01-16,11:00,1.9,173,30.4,61
2016-01-16,12:00,3.9,178,30.2,59
2016-01-16,13:00,4.2,185,30.7,54
2016-01-16,14:00,3.7,176,31.2,52
2016-01-16,15:00,3.5,191,30.9,53
2016-01-16,16:00,3.2,178,30.5,56
2016-01-16,17:00,3.1,157,30.1,58
2016-01-16,18:00,3,165,29.5,62
2016-01-16,19:00,3.4,172,29.2,63
2016-01-16,20:00,3.8,180,28.8,69
2016-01-16,21:00,3.6,176,28.6,72
2016-01-16,22:00,3.9,176,28.4,75
2016-01-16,23:00,3.4,178,28.4,74
2016-01-17,00:00,3.2,179,28.4,72
2016-01-17,01:00,3.6,171,28.2,75
2016-01-17,02:00,3.1,176,28,77
2016-01-17,03:00,3,176,27.9,78
2016-01-17,04:00,2.9,203,27.8,76
2016-01-17,05:00,2.9,235,27.6,78
2016-01-17,06:00,3,238,27.1,82
2016-01-17,07:00,3,236,27.1,83
2016-01-17,08:00,2.8,197,27.8,79
2016-01-17,09:00,2.8,201,28.8,71
2016-01-17,10:00,2.7,187,30.2,61
2016-01-17,11:00,2.2,201,31.1,56
2016-01-17,12:00,2.9,204,31.8,53
2016-01-17,13:00,2.5,190,32.4,50
2016-01-17,14:00,2.7,194,32.7,48
2016-01-17,15:00,2.5,188,32.9,47
2016-01-17,16:00,3,160,32.5,48
2016-01-17,17:00,3.4,151,31.2,53
2016-01-17,18:00,3.3,152,29.8,60
2016-01-17,19:00,3.1,154,29.1,70
2016-01-17,20:00,4.3,165,29,71
2016-01-17,21:00,4.3,165,28.7,77
2016-01-17,22:00,4.1,169,28.5,76
2016-01-17,23:00,4.1,168,28.1,78
2016-01-18,00:00,3,177,27.9,79
2016-01-18,01:00,3.2,164,27.9,80
2016-01-18,02:00,2.9,156,27.8,81
2016-01-18,03:00,2.6,136,27.7,81
2016-01-18,04:00,3.1,96,27,87
2016-01-18,05:00,3,101,26.4,89
2016-01-18,06:00,3,105,26,90
2016-01-18,07:00,3,94,26.1,90
2016-01-18,08:00,3,99,26.8,88
2016-01-18,09:00,2.9,78,27.8,84
2016-01-18,10:00,3.1,68,28.5,80
2016-01-18,11:00,2.1,79,30,72
2016-01-18,12:00,1.5,57,31.5,64
2016-01-18,13:00,1.9,66,31.8,60
2016-01-18,14:00,2.7,73,31.9,60
2016-01-18,15:00,1.5,146,32.8,56
2016-01-18,16:00,2.5,169,33.2,52
2016-01-18,17:00,3.4,163,32.2,52
2016-01-18,18:00,3.2,149,30.5,59
2016-01-18,19:00,2.9,153,29.6,66
2016-01-18,20:00,3.5,168,29.2,72
2016-01-18,21:00,4.2,167,28.8,78
2016-01-18,22:00,4.1,170,28.6,80
2016-01-18,23:00,3.6,169,28.4,79
2016-01-19,00:00,3,173,28.2,80
2016-01-19,01:00,3.1,181,28,81
2016-01-19,02:00,2.9,152,27.9,83
2016-01-19,03:00,2.7,147,27.7,85
2016-01-19,04:00,2.7,114,27.4,86
2016-01-19,05:00,3.1,83,26.7,89
2016-01-19,06:00,3.1,90,26.1,92
2016-01-19,07:00,3.1,98,26.2,92
2016-01-19,08:00,3,102,27.4,88
2016-01-19,09:00,2.6,116,28.9,78
2016-01-19,10:00,2.3,154,29.9,71
2016-01-19,11:00,1.8,148,30.1,71
2016-01-19,12:00,3.7,152,27.9,72
2016-01-19,13:00,2.6,141,29.7,71
2016-01-19,14:00,3.6,163,30.8,62
2016-01-19,15:00,3.7,171,31.1,59
2016-01-19,16:00,3.8,168,30.9,58
2016-01-19,17:00,3.3,161,29.9,65
2016-01-19,18:00,4,171,29.3,72
2016-01-19,19:00,4.1,177,29.1,75
2016-01-19,20:00,4,168,29.1,71
2016-01-19,21:00,3.2,158,28.8,75
2016-01-19,22:00,3.2,160,28.6,77
2016-01-19,23:00,3.7,169,28.6,76
2016-01-20,00:00,3.2,159,28.4,77
2016-01-20,01:00,3.5,230,27.8,81
2016-01-20,02:00,1.2,141,26.9,80
2016-01-20,03:00,2.7,128,25,84
2016-01-20,04:00,3.6,156,24,91
2016-01-20,05:00,4.2,163,24.8,86
2016-01-20,06:00,2.6,164,25.3,84
2016-01-20,07:00,2.6,118,25.5,87
2016-01-20,08:00,3,104,26,87
2016-01-20,09:00,2.8,103,27.7,82
2016-01-20,10:00,2.5,145,29.4,72
2016-01-20,11:00,2.5,173,30.3,66
2016-01-20,12:00,3.6,193,31,61
2016-01-20,13:00,3,181,31.5,59
2016-01-20,14:00,3.4,183,31.7,58
2016-01-20,15:00,3.6,181,31.6,59
2016-01-20,16:00,3.7,178,31.2,61
2016-01-20,17:00,3.5,166,30.3,65
2016-01-20,18:00,3.1,171,29.4,70
2016-01-20,19:00,3.6,161,28.9,73
2016-01-20,20:00,4.1,164,28.6,76
2016-01-20,21:00,3.7,170,28.4,78
2016-01-20,22:00,2.9,165,28.3,78
2016-01-20,23:00,2.9,161,28.1,81
2016-01-21,00:00,2.8,151,27.9,83
2016-01-21,01:00,2.8,147,27.7,84
2016-01-21,02:00,2.3,145,27.7,84
2016-01-21,03:00,3,86,27.3,87
2016-01-21,04:00,2,71,26.5,90
2016-01-21,05:00,1.7,72,26.1,92
2016-01-21,06:00,0.3,153,25.9,91
2016-01-21,07:00,1.6,317,26.3,91
2016-01-21,08:00,2.6,341,26.9,89
2016-01-21,09:00,2.4,308,27.8,84
2016-01-21,10:00,1.7,302,29.3,75
2016-01-21,11:00,2.1,279,29.8,70
2016-01-21,12:00,1.4,278,30.8,65
2016-01-21,13:00,4.2,62,27.6,77
2016-01-21,14:00,3.2,43,29.3,71
2016-01-21,15:00,2.4,77,30.7,65
2016-01-21,16:00,3.5,180,31.6,56
2016-01-21,17:00,3.3,180,31.1,59
2016-01-21,18:00,4.1,183,29.7,67
2016-01-21,19:00,4.2,176,28.9,73
2016-01-21,20:00,3.6,186,28.7,75
2016-01-21,21:00,3,177,28.5,78
2016-01-21,22:00,4.2,172,28.3,80
2016-01-21,23:00,3.2,183,28.2,80
2016-01-22,00:00,3.2,178,28.1,79
2016-01-22,01:00,3.2,181,27.9,80
2016-01-22,02:00,3.3,192,27.7,81
2016-01-22,03:00,2.9,189,27.6,82
2016-01-22,04:00,2.9,189,27.4,82
2016-01-22,05:00,2.9,180,27.4,82
2016-01-22,06:00,3,172,27.3,82
2016-01-22,07:00,2.9,184,27.7,81
2016-01-22,08:00,3.1,192,28.6,74
2016-01-22,09:00,2.9,209,29.6,66
2016-01-22,10:00,2.7,222,30.8,60
2016-01-22,11:00,2.9,248,31.4,56
2016-01-22,12:00,2.5,241,32.5,50
2016-01-22,13:00,2,249,32.7,49
2016-01-22,14:00,2.8,220,32.8,50
2016-01-22,15:00,3.6,179,32.3,55
2016-01-22,16:00,3.3,177,32,53
2016-01-22,17:00,3.3,208,31.5,54
2016-01-22,18:00,3.4,210,30.8,55
2016-01-22,19:00,3.1,200,30.4,54
2016-01-22,20:00,2.9,175,30,54
2016-01-22,21:00,3,166,29.4,61
2016-01-22,22:00,3,177,29,68
2016-01-22,23:00,3,181,28.6,72
2016-01-23,00:00,3.1,182,28.3,74
2016-01-23,01:00,3.1,178,27.9,79
2016-01-23,02:00,3,176,27.6,80
2016-01-23,03:00,3.1,180,27.4,82
2016-01-23,04:00,1.7,335,27.1,83
2016-01-23,05:00,2.9,7,26.3,88
2016-01-23,06:00,3,38,25.9,90
2016-01-23,07:00,3.1,43,25.8,90
2016-01-23,08:00,2.6,10,26.6,88
2016-01-23,09:00,1.8,86,28.2,81
2016-01-23,10:00,1.8,220,29.3,73
2016-01-23,11:00,2.5,172,30.9,63
2016-01-23,12:00,2,145,32,57
2016-01-23,13:00,1.7,148,32.6,55
2016-01-23,14:00,2.5,116,33,54
2016-01-23,15:00,2.4,141,33.2,54
2016-01-23,16:00,2.6,157,33.1,53
2016-01-23,17:00,3.8,209,31.7,59
2016-01-23,18:00,3.8,214,30.2,65
2016-01-23,19:00,3.6,205,29.4,69
2016-01-23,20:00,3.1,206,29,73
2016-01-23,21:00,2.9,187,29,72
2016-01-23,22:00,3,180,28.9,75
2016-01-23,23:00,3.1,172,28.6,79
2016-01-24,00:00,3.2,178,28.4,80
2016-01-24,01:00,3.3,179,28.3,80
2016-01-24,02:00,3.2,181,28.2,80
2016-01-24,03:00,3.1,193,28,80
2016-01-24,04:00,2.3,155,27.9,79
2016-01-24,05:00,4.7,73,26.2,84
2016-01-24,06:00,4.4,70,24.9,85
2016-01-24,07:00,3.2,67,24.4,89
2016-01-24,08:00,4,82,24.7,89
2016-01-24,09:00,6,76,24.3,79
2016-01-24,10:00,5.5,75,24.5,73
2016-01-24,11:00,5.1,83,24.2,67
2016-01-24,12:00,4.2,90,24.7,64
2016-01-24,13:00,5.2,66,23.1,73
2016-01-24,14:00,5.3,69,23.4,72
2016-01-24,15:00,5.3,67,23.9,68
2016-01-24,16:00,4,33,23.4,71
2016-01-24,17:00,6.1,61,23.2,62
2016-01-24,18:00,4.7,60,22.3,64
2016-01-24,19:00,4,20,20.1,68
2016-01-24,20:00,3.5,14,19,70
2016-01-24,21:00,3.8,354,18.2,71
2016-01-24,22:00,3.3,1,17.8,69
2016-01-24,23:00,3,1,17.5,68
2016-01-25,00:00,2.8,340,17.3,68
2016-01-25,01:00,2.9,348,17.2,68
2016-01-25,02:00,3.4,349,16.8,66
2016-01-25,03:00,3.5,349,16.3,66
2016-01-25,04:00,3,8,16,69
2016-01-25,05:00,2.9,356,15.6,73
2016-01-25,06:00,2.8,7,15.5,76
2016-01-25,07:00,3,349,15.4,77
2016-01-25,08:00,3.7,0,15.1,74
2016-01-25,09:00,3.3,352,15.5,69
2016-01-25,10:00,3.6,359,15.8,63
2016-01-25,11:00,4,333,16.2,62
2016-01-25,12:00,4.2,351,16.4,60
2016-01-25,13:00,4,351,17.2,57
2016-01-25,14:00,4.1,356,18.1,55
2016-01-25,15:00,4.8,350,18.4,54
2016-01-25,16:00,5,355,18.4,54
2016-01-25,17:00,5.9,347,17.6,56
2016-01-25,18:00,5.4,0,17.1,56
2016-01-25,19:00,4.8,355,16.8,58
2016-01-25,20:00,4.6,346,16.3,61
2016-01-25,21:00,4.9,350,16.2,62
2016-01-25,22:00,4.3,356,16.2,62
2016-01-25,23:00,4.5,356,16.3,61
2016-01-26,00:00,4.2,352,16.4,60
2016-01-26,01:00,3.9,343,16.1,62
2016-01-26,02:00,4.4,350,15.8,63
2016-01-26,03:00,4.7,349,15.6,61
2016-01-26,04:00,4.3,357,15.6,61
2016-01-26,05:00,4.4,356,15.6,59
2016-01-26,06:00,4.4,358,15.4,59
2016-01-26,07:00,3.9,356,15.4,60
2016-01-26,08:00,4.4,345,15.9,59
2016-01-26,09:00,4.5,345,16.7,57
2016-01-26,10:00,4.4,352,17.9,55
2016-01-26,11:00,3.9,353,19.1,52
2016-01-26,12:00,3.4,1,20.4,50
2016-01-26,13:00,3.5,350,21.5,48
2016-01-26,14:00,3.8,340,21.9,48
2016-01-26,15:00,4.3,344,22,48
2016-01-26,16:00,5,347,21.6,49
2016-01-26,17:00,5.4,348,21.1,50
2016-01-26,18:00,4.9,354,20.5,52
2016-01-26,19:00,5,347,19.7,54
2016-01-26,20:00,5.1,337,19.2,58
2016-01-26,21:00,5.3,326,17.2,74
2016-01-26,22:00,4.5,325,16.6,76
2016-01-26,23:00,4,330,16.2,78
2016-01-27,00:00,4.2,327,15.8,80
2016-01-27,01:00,4.1,323,15.5,82
2016-01-27,02:00,3.9,327,15.3,83
2016-01-27,03:00,4.2,323,15.4,83
2016-01-27,04:00,4.3,325,15.5,83
2016-01-27,05:00,3.7,322,15.4,83
2016-01-27,06:00,3.6,323,15.4,83
2016-01-27,07:00,4.1,336,15.4,83
2016-01-27,08:00,3.5,338,16.4,79
2016-01-27,09:00,4,324,17.7,74
2016-01-27,10:00,4.2,331,19,68
2016-01-27,11:00,3.3,345,20.7,62
2016-01-27,12:00,2.8,326,22.4,57
2016-01-27,13:00,3.4,319,23.3,55
2016-01-27,14:00,4.4,335,23.8,54
2016-01-27,15:00,3.2,352,24.7,52
2016-01-27,16:00,3.1,348,25.3,50
2016-01-27,17:00,2.8,353,25.2,51
2016-01-27,18:00,2.9,328,24.4,54
2016-01-27,19:00,3.1,326,23.8,56
2016-01-27,20:00,2.9,327,23.2,58
2016-01-27,21:00,3.3,332,22.6,60
2016-01-27,22:00,4,329,21.4,65
2016-01-27,23:00,3.6,340,20.6,68
2016-01-28,00:00,3.6,340,20.1,70
2016-01-28,01:00,3.5,346,19.7,71
2016-01-28,02:00,3.3,324,19.2,73
2016-01-28,03:00,3.8,316,18.4,78
2016-01-28,04:00,3.6,315,18,80
2016-01-28,05:00,3.6,324,17.8,80
2016-01-28,06:00,3.1,333,17.7,80
2016-01-28,07:00,2.9,342,18.1,79
2016-01-28,08:00,2.8,343,19.2,75
2016-01-28,09:00,3.2,320,20.2,72
2016-01-28,10:00,2.8,330,21.7,68
2016-01-28,11:00,2.8,325,23.6,62
2016-01-28,12:00,2.4,333,25.5,56
2016-01-28,13:00,2.6,317,27,52
2016-01-28,14:00,2.3,318,28.2,50
2016-01-28,15:00,2.5,346,28.7,49
2016-01-28,16:00,2.6,337,28.9,49
2016-01-28,17:00,2.8,342,28.6,50
2016-01-28,18:00,2.8,344,27.9,53
2016-01-28,19:00,2.7,320,27.5,55
2016-01-28,20:00,2.9,328,27.3,55
2016-01-28,21:00,2.9,321,26.8,58
2016-01-28,22:00,2.9,317,25.8,62
2016-01-28,23:00,2.8,327,25.1,63
2016-01-29,00:00,2.9,326,24.5,65
2016-01-29,01:00,2.8,345,23.8,65
2016-01-29,02:00,2.8,334,23.4,66
2016-01-29,03:00,2.9,323,22.9,69
2016-01-29,04:00,2.8,347,22.9,69
2016-01-29,05:00,2.9,350,22.8,68
2016-01-29,06:00,2.9,343,22.7,69
2016-01-29,07:00,2.5,324,23.2,68
2016-01-29,08:00,2.7,342,24.3,66
2016-01-29,09:00,2.1,72,27.2,57
2016-01-29,10:00,0.4,247,29,52
2016-01-29,11:00,2,237,30,50
2016-01-29,12:00,2.6,234,30.9,47
2016-01-29,13:00,2.7,246,31.6,45
2016-01-29,14:00,2.7,209,32.3,44
2016-01-29,15:00,2.7,230,32.7,44
2016-01-29,16:00,3,203,32.5,43
2016-01-29,17:00,2.8,205,32.1,44
2016-01-29,18:00,3.1,194,31.2,47
2016-01-29,19:00,3,160,30.2,52
2016-01-29,20:00,3,179,29.3,57
2016-01-29,21:00,3.2,198,28.8,61
2016-01-29,22:00,3.2,197,28.4,64
2016-01-29,23:00,3.5,206,27.9,69
2016-01-30,00:00,3.7,201,27.4,73
2016-01-30,01:00,3.8,197,27.1,76
2016-01-30,02:00,3.5,200,26.9,78
2016-01-30,03:00,1,153,26.5,81
2016-01-30,04:00,3.1,35,26.3,83
2016-01-30,05:00,3,36,25.6,84
2016-01-30,06:00,3.1,78,24.9,85
2016-01-30,07:00,3,97,24.9,86
2016-01-30,08:00,2.8,115,26,86
2016-01-30,09:00,2.4,142,27.6,81
2016-01-30,10:00,2.5,176,29.2,70
2016-01-30,11:00,3.2,204,30,63
2016-01-30,12:00,2.8,205,31,58
2016-01-30,13:00,3.4,203,31.5,53
2016-01-30,14:00,4,210,31.8,52
2016-01-30,15:00,3.6,211,31.9,50
2016-01-30,16:00,3.3,177,31.8,50
2016-01-30,17:00,3.2,158,31,53
2016-01-30,18:00,3.3,165,29.9,58
2016-01-30,19:00,3.2,169,29,66
2016-01-30,20:00,3.1,174,28.5,70
2016-01-30,21:00,3.6,176,28,78
2016-01-30,22:00,3.1,173,27.8,78
2016-01-30,23:00,3.8,178,27.8,79
2016-01-31,00:00,3.8,201,27.6,82
2016-01-31,01:00,3.8,199,27.4,83
2016-01-31,02:00,3.4,192,27.1,83
2016-01-31,03:00,3,181,27.1,83
2016-01-31,04:00,3.1,164,27.1,82
2016-01-31,05:00,2.9,154,26.8,84
2016-01-31,06:00,1.9,129,26.7,85
2016-01-31,07:00,2.9,76,26.6,87
2016-01-31,08:00,2.7,110,27.3,86
2016-01-31,09:00,2.7,158,28.7,76
2016-01-31,10:00,2.7,188,29.7,67
2016-01-31,11:00,2.5,205,30.8,59
2016-01-31,12:00,2.4,204,31.6,55
2016-01-31,13:00,2.9,172,32.3,52
2016-01-31,14:00,3.5,170,32.4,50
2016-01-31,15:00,3.6,177,32.3,49
2016-01-31,16:00,3.3,165,32,52
2016-01-31,17:00,3.6,179,31,55
2016-01-31,18:00,3.7,177,29.5,63
2016-01-31,19:00,3.9,173,28.6,72
2016-01-31,20:00,4.5,173,28.3,75
2016-01-31,21:00,4.4,169,28,78
2016-01-31,22:00,4,176,27.9,78